Miscellaneous Local Product
Issued by NWS Hastings, NE

Current Version | Previous Version | Text Only | Print | Product List | Glossary On
Versions: 1 2 3 4 5 6 7 8 9 10 11 12 13 14 15 16 17 18 19 20 21 22 23 24 25 26 27 28 29 30 31 32 33 34 35 36 37 38 39 40 41 42 43 44 45 46 47 48 49 50
063
AXUS43 KGID 051902
MISGRI

GID CWA HOURLY WEATHER ROUNDUP
NATIONAL WEATHER SERVICE HASTINGS NE
100 PM CST MON DEC 05 2016

NOTE: "FAIR" INDICATES FEW OR NO CLOUDS BELOW 12,000 FEET WITH NO
SIGNIFICANT WEATHER AND/OR OBSTRUCTIONS TO VISIBILITY.

...SOUTH CENTRAL NEBRASKA...

CITY           SKY/WX    TMP DP  RH WIND       PRES   REMARKS
GRAND ISLAND   SUNNY     47  32  56 S15       29.58F
HASTINGS       SUNNY     49  32  52 S13G20    29.60F
KEARNEY        SUNNY     46  28  49 S12       29.58F
ORD            CLOUDY    45  25  45 S6        29.53S
YORK           MOSUNNY   46  36  66 S16       29.61F
AURORA         SUNNY     49  33  54 SW14G20   29.60F
LEXINGTON      MOSUNNY   47  25  41 S7        29.56F
HOLDREGE       SUNNY     49  27  42 S7        29.58F
HEBRON         SUNNY     48  36  62 S7        29.65F

...NEBRASKA PANHANDLE...

CITY           SKY/WX    TMP DP  RH WIND       PRES   REMARKS
CHADRON        CLOUDY    32  26  78 W13       29.69R WCI  22
ALLIANCE       PTSUNNY   37  26  64 N18       29.62R WCI  27
SCOTTSBLUFF    SUNNY     40  24  53 NW25G33   29.66R WCI  29
SIDNEY         CLOUDY    47  12  24 NW37G53   29.62S

...WESTERN AND NORTH CENTRAL NEBRASKA...

CITY           SKY/WX    TMP DP  RH WIND       PRES   REMARKS
VALENTINE      CLOUDY    37  29  72 NW20G26   29.59R WCI  27
AINSWORTH      SUNNY     42  30  63 NW25G32   29.56R
ONEILL         SUNNY     53  28  37 SW10G17   29.49S
BROKEN BOW     MOSUNNY   52  28  39 W3        29.51F
IMPERIAL       PTSUNNY   51  21  30 NW7       29.56F
NORTH PLATTE   CLOUDY    50  24  36 NW10      29.57F
MCCOOK         MOSUNNY   50  22  33 VRB6      29.56F

...EASTERN NEBRASKA...

CITY           SKY/WX    TMP DP  RH WIND       PRES   REMARKS
NORFOLK        CLOUDY    43  31  62 S18G32    29.54F
SO SIOUX CITY  CLOUDY    46  34  62 S21G29    29.59F
TEKAMAH        CLOUDY    44  35  70 S21       29.63F
COLUMBUS       PTSUNNY   45  32  61 S15G25    29.61F
ALBION         CLOUDY    45  30  56 S12       29.57S
OMAHA EPPLEY   PTSUNNY   47  35  63 S22       29.67F
OFFUTT AFB     MOSUNNY   48  38  69 SE13G23   29.68F
MILLARD        PTSUNNY   48  35  60 SE14G20   29.66F
LINCOLN        MOSUNNY   49  36  61 S18       29.65F
NEBRASKA CITY  SUNNY     49  33  54 S17       29.71F
BEATRICE       SUNNY     53  34  49 S16       29.66F
FALLS CITY     SUNNY     49  36  61 S20G31    29.74F

...NORTHERN KANSAS...

CITY           SKY/WX    TMP DP  RH WIND       PRES   REMARKS
GOODLAND       SUNNY     61  17  18 NE15      29.55F
HILL CITY      SUNNY     49  27  42 VRB3      29.58F
NORTON         CLEAR     48  21  34 SE6       29.57F
PHILLIPSBURG   SUNNY     48  30  49 S6        29.60F
SMITH CENTER   SUNNY     48  32  53 S9        29.62F
BELOIT         SUNNY     54  34  47 S18G24    29.62R
HAYS           SUNNY     51  32  48 S16       29.61S
RUSSELL        SUNNY     54  33  45 S22G35    29.59F
CONCORDIA      SUNNY     51  35  54 S22G33    29.64S
SALINA         SUNNY     53  34  48 S21G32    29.67F
TOPEKA         SUNNY     50  40  68 S15       29.77F



USA.gov is the U.S. government's official web portal to all federal, state and local government web resources and services.